Change the Weather History Date:

Monday, October 28, 2013

  Actual Average Record
Temperature  
Mean Temperature 80 °F -  
Max Temperature 86 °F 87 °F 91 °F (1996)
Min Temperature 75 °F 74 °F 73 °F (1999)
Cooling Degree Days 16    
Growing Degree Days 30 (Base 50)    
Moisture  
Dew Point 75 °F    
Average Humidity 86    
Maximum Humidity 100    
Minimum Humidity 68    
Precipitation  
Precipitation 0.00 in 0.32 in - ()
Sea Level Pressure  
Sea Level Pressure 29.89 in    
Wind  
Wind Speed 3 mph ()    
Max Wind Speed 12 mph    
Max Gust Speed -    
Visibility 5.2 miles    
Events Rain , Thunderstorm    
Averages and records for this station are not official NWS values.
T = Trace of Precipitation, MM = Missing Value Source: Averaged Metar Reports

Daily Weather History Graph

Daily Weather History Graph

Search for Another Location

Airport or City:

Trip Planner

Search our weather history database for the weather conditions in past years. The results will help you decide how hot, cold, wet, or windy it might be!

Date:

Astronomy

Oct. 28, 2013 Rise Set
Actual Time 6:45 AM SGT 6:49 PM SGT
Civil Twilight 6:24 AM SGT 7:11 PM SGT
Nautical Twilight 5:59 AM SGT 7:35 PM SGT
Astronomical Twilight 5:35 AM SGT 8:00 PM SGT
Moon 1:32 AM SGT (10/28) 1:56 PM SGT (10/28)
Length of Visible Light 12h 46m
Length of Day
12h 04m
Last Quarter, 39% of the Moon is Illuminated
Oct 28
Last Quarter
Nov 3
New
Nov 10
First Quarter
Nov 17
Full
Nov 26
Last Quarter

Hourly Weather History & Observations

Time (SGT) Temp. Heat Index Dew Point Humidity Pressure Visibility Wind Dir Wind Speed Gust Speed Precip Events Conditions
12:00 AM 77.0 °F - 73.4 °F 89% 29.92 in 6.2 mi Variable 2.3 mph - N/A   Mostly Cloudy
12:30 AM 77.0 °F - 73.4 °F 89% 29.92 in 6.2 mi NNW 3.5 mph - N/A   Mostly Cloudy
1:00 AM 77.0 °F - 75.2 °F 94% 29.92 in 6.2 mi NW 3.5 mph - N/A Thunderstorm Thunderstorm
1:30 AM 77.0 °F - 75.2 °F 94% 29.92 in 6.2 mi Variable 2.3 mph - N/A   Mostly Cloudy
2:00 AM 78 °F - 74 °F 86% 29.91 in 6 mi NW 3.5 mph - - Thunderstorm Light Thunderstorm
2:00 AM 77.0 °F - 75.2 °F 94% 29.89 in 6.2 mi NW 3.5 mph - N/A   Mostly Cloudy
2:30 AM 77.0 °F - 75.2 °F 94% 29.89 in 6.2 mi NW 3.5 mph - N/A   Mostly Cloudy
3:00 AM 77.0 °F - 75.2 °F 94% 29.86 in 5.6 mi NW 3.5 mph - N/A   Mostly Cloudy
3:30 AM 77.0 °F - 75.2 °F 94% 29.86 in 5.0 mi Variable 2.3 mph - N/A   Mostly Cloudy
4:00 AM 77.0 °F - 75.2 °F 94% 29.86 in 5.0 mi East 4.6 mph - N/A   Mostly Cloudy
4:30 AM 77.0 °F - 75.2 °F 94% 29.86 in 5.0 mi Variable 2.3 mph - N/A   Mostly Cloudy
5:00 AM 77 °F - 75 °F 93% 29.88 in 5 mi NW 2.3 mph - -   Scattered Clouds
5:00 AM 77.0 °F - 75.2 °F 94% 29.86 in 5.0 mi Variable 2.3 mph - N/A   Mostly Cloudy
5:30 AM 77.0 °F - 75.2 °F 94% 29.89 in 5.0 mi Variable 1.2 mph - N/A   Mostly Cloudy
6:00 AM 77.0 °F - 75.2 °F 94% 29.89 in 5.0 mi Variable 2.3 mph - N/A   Mostly Cloudy
6:30 AM 77.0 °F - 75.2 °F 94% 29.89 in 3.7 mi Variable 2.3 mph - N/A   Mostly Cloudy
7:00 AM 77.0 °F - 75.2 °F 94% 29.89 in 3.1 mi Variable 2.3 mph - N/A   Mostly Cloudy
7:30 AM 77.0 °F - 77.0 °F 100% 29.92 in 3.1 mi Variable 2.3 mph - N/A   Mostly Cloudy
8:00 AM 79 °F - 76 °F 88% 29.94 in 4 mi NW 3.5 mph - -   Haze
8:00 AM 78.8 °F - 77.0 °F 94% 29.92 in 3.7 mi NW 3.5 mph - N/A   Mostly Cloudy
8:30 AM 80.6 °F 86.2 °F 75.2 °F 84% 29.95 in 3.1 mi NW 4.6 mph - N/A   Haze
9:00 AM 80.6 °F 86.2 °F 75.2 °F 84% 29.95 in 3.1 mi NW 4.6 mph - N/A   Haze
9:30 AM 80.6 °F 86.2 °F 75.2 °F 84% 29.95 in 3.7 mi Variable 3.5 mph - N/A   Mostly Cloudy
10:00 AM 84.2 °F 92.3 °F 75.2 °F 74% 29.95 in 3.7 mi NW 4.6 mph - N/A   Mostly Cloudy
10:30 AM 84.2 °F 92.3 °F 75.2 °F 74% 29.95 in 3.7 mi NW 4.6 mph - N/A   Mostly Cloudy
11:00 AM 86 °F - 77 °F 68% 29.95 in 4 mi North 3.5 mph - -   Haze
11:00 AM 86.0 °F 96.9 °F 77.0 °F 74% 29.95 in 4.3 mi North 3.5 mph - N/A   Mostly Cloudy
11:30 AM 86.0 °F 95.1 °F 75.2 °F 70% 29.92 in 5.6 mi NE 5.8 mph - N/A   Mostly Cloudy
12:00 PM 86.0 °F 96.9 °F 77.0 °F 74% 29.92 in 6.2 mi NNE 6.9 mph - N/A   Mostly Cloudy
12:30 PM 86.0 °F 95.1 °F 75.2 °F 70% 29.89 in 6.2 mi ENE 5.8 mph - N/A   Mostly Cloudy
1:00 PM 86.0 °F 96.9 °F 77.0 °F 74% 29.89 in 6.2 mi SW 3.5 mph - N/A   Mostly Cloudy
1:30 PM 86.0 °F 95.1 °F 75.2 °F 70% 29.86 in 6.2 mi Variable 2.3 mph - N/A Rain Light Rain Showers
2:00 PM 85 °F - 76 °F 69% 29.86 in 6 mi WSW 2.3 mph - - Rain Light Rain Showers
2:00 PM 86.0 °F 96.9 °F 77.0 °F 74% 29.86 in 6.2 mi Variable 2.3 mph - N/A   Mostly Cloudy
2:30 PM 86.0 °F 96.9 °F 77.0 °F 74% 29.83 in 6.2 mi Variable 3.5 mph - N/A   Scattered Clouds
3:00 PM 84.2 °F 94.1 °F 77.0 °F 79% 29.83 in 6.2 mi SE 8.1 mph - N/A Thunderstorm Thunderstorm
3:30 PM 82.4 °F 89.5 °F 75.2 °F 79% 29.83 in 6.2 mi East 11.5 mph - N/A Thunderstorm Thunderstorm
4:00 PM 80.6 °F 86.2 °F 75.2 °F 84% 29.83 in 6.2 mi ENE 6.9 mph - N/A Rain , Thunderstorm Light Thunderstorms and Rain
4:30 PM 77.0 °F - 73.4 °F 89% 29.86 in 6.2 mi West 9.2 mph - N/A Rain , Thunderstorm Light Thunderstorms and Rain
5:00 PM 76 °F - 72 °F 85% 29.84 in 9 mi West 8.1 mph - - Thunderstorm Thunderstorm
5:00 PM 75.2 °F - 71.6 °F 89% 29.83 in 6.2 mi West 8.1 mph - N/A Thunderstorm Thunderstorm
5:30 PM 77.0 °F - 71.6 °F 83% 29.83 in 6.2 mi WNW 4.6 mph - N/A   Scattered Clouds
6:00 PM 78.8 °F - 71.6 °F 78% 29.83 in 6.2 mi Variable 3.5 mph - N/A   Mostly Cloudy
6:30 PM 78.8 °F - 73.4 °F 83% 29.83 in 5.6 mi Variable 1.2 mph - N/A   Scattered Clouds
7:00 PM 78.8 °F - 73.4 °F 83% 29.86 in 5.0 mi Variable 3.5 mph - N/A   Scattered Clouds
7:30 PM 78.8 °F - 75.2 °F 89% 29.86 in 5.0 mi Variable 2.3 mph - N/A   Mostly Cloudy
8:00 PM 78 °F - 74 °F 86% 29.88 in 5 mi West 1.2 mph - -   Haze
8:00 PM 78.8 °F - 75.2 °F 89% 29.86 in 5.0 mi Variable 1.2 mph - N/A   Mostly Cloudy
8:30 PM 77.0 °F - 75.2 °F 94% 29.89 in 5.0 mi Variable 1.2 mph - N/A   Mostly Cloudy
9:00 PM 78.8 °F - 75.2 °F 89% 29.89 in 5.0 mi Variable 2.3 mph - N/A   Mostly Cloudy
9:30 PM 78.8 °F - 77.0 °F 94% 29.92 in 5.0 mi Variable 2.3 mph - N/A   Mostly Cloudy
10:00 PM 78.8 °F - 77.0 °F 94% 29.92 in 5.0 mi Variable 1.2 mph - N/A   Mostly Cloudy
10:30 PM 78.8 °F - 77.0 °F 94% 29.92 in 5.0 mi Variable 2.3 mph - N/A   Mostly Cloudy
11:00 PM 78 °F - 77 °F 94% 29.94 in 5 mi NNW 2.3 mph - -   Haze
11:00 PM 78.8 °F - 77.0 °F 94% 29.92 in 5.0 mi Variable 2.3 mph - N/A   Mostly Cloudy
11:30 PM 78.8 °F - 77.0 °F 94% 29.92 in 5.0 mi Variable 1.2 mph - N/A   Mostly Cloudy